Regional Weather Roundup
Issued by NWS

Home | Current Version | Previous Version | Graphics & Text | Print | Product List | Glossary On
Versions: 1 2 3 4 5 6 7 8 9 10 11 12 13 14 15 16 17 18 19 20 21 22 23 24 25 26 27 28
000
ASUS45 KCYS 241810
RWRWY

WYOMING REGIONAL WEATHER ROUNDUP
NATIONAL WEATHER SERVICE CHEYENNE WY
1200 PM MDT MON JUL 24 2017

NOTE:  "FAIR" INDICATES FEW OR NO CLOUDS BELOW 12,000 FEET
WITH NO SIGNIFICANT WEATHER AND/OR OBSTRUCTIONS TO VISIBILITY.

WYZ001-241900-
YELLOWSTONE NATIONAL PARK

CITY           SKY/WX    TMP DP  RH WIND       PRES   REMARKS
LK YELLOWSTONE   N/A     74  35  24 VRB5      30.27S
6HR MIN TEMP:  40; 6HR MAX TEMP:  74;

W YELLOWSTONE  NOT AVBL

$$
WYZ002>013-054>058-071-098>099-241900-
NORTHERN WYOMING

CITY           SKY/WX    TMP DP  RH WIND       PRES   REMARKS
JACKSON        SUNNY     73  45  35 CALM      30.18F
CODY           FAIR      84  43  23 NE9       30.02F
GREYBULL       FAIR      91  32  12 VRB3      29.91
6HR MIN TEMP:  58; 6HR MAX TEMP:  91;

WORLAND        FAIR      93  36  13 N6        29.93F
6HR MIN TEMP:  56; 6HR MAX TEMP:  93;

SHERIDAN       FAIR      94  39  14 NW14G21   29.93S HX  90
6HR MIN TEMP:  59; 6HR MAX TEMP:  94;

BUFFALO        FAIR      91  37  15 N18       30.00S
6HR MIN TEMP:  63; 6HR MAX TEMP:  92;

GILLETTE       FAIR      93  37  14 W10G18    29.94R
6HR MIN TEMP:  60; 6HR MAX TEMP:  93;

HULETT         FAIR      88  48  25 NW7       29.94F
NEWCASTLE      FAIR      88  43  20 NW3       29.95S

$$
WYZ014>020-022>026-101>103-241900-
CENTRAL WYOMING

CITY           SKY/WX    TMP DP  RH WIND       PRES   REMARKS
BIG PINEY      FAIR      80  37  21 SE6       30.23F
6HR MIN TEMP:  44; 6HR MAX TEMP:  80;

PINEDALE       FAIR      79  34  19 CALM      30.24F
DUBOIS         MOCLDY    81  28  15 W17G30    30.19F
LANDER         FAIR      89  35  14 VRB3      30.06F
6HR MIN TEMP:  56; 6HR MAX TEMP:  89;

RIVERTON       FAIR      87  33  14 SE7       30.06F
6HR MIN TEMP:  61; 6HR MAX TEMP:  87;

CASPER         FAIR      91  29  11 W10G28    30.04F
6HR MIN TEMP:  59; 6HR MAX TEMP:  92;

DOUGLAS        FAIR      94  30  10 NW15      30.01F
6HR MIN TEMP:  57; 6HR MAX TEMP:  94;


$$
WYZ021-027>030-104>119-241900-
SOUTHERN WYOMING

CITY           SKY/WX    TMP DP  RH WIND       PRES   REMARKS
EVANSTON       PTSUNNY   74  43  32 SW9       30.25F
6HR MIN TEMP:  60; 6HR MAX TEMP:  75; 6HR PCP: TRACE;

KEMMERER         N/A     79  34  19 W3        30.26S
FORT BRIDGER   MOCLDY    79  40  24 W7        30.28S
ROCK SPRINGS   FAIR      79  35  20 S3        30.22F
6HR MIN TEMP:  63; 6HR MAX TEMP:  79; 6HR PCP: TRACE;

RAWLINS        FAIR      83  33  16 SW17      30.21
6HR MIN TEMP:  52; 6HR MAX TEMP:  86;

SARATOGA       FAIR      82  36  18 W10G16    30.24F
LARAMIE        FAIR      83  34  17 N10       30.22F
6HR MIN TEMP:  51; 6HR MAX TEMP:  83;

CHEYENNE       FAIR      90  29  11 NW12G17   30.13S
6HR MIN TEMP:  57; 6HR MAX TEMP:  92;

TORRINGTON     FAIR      92  41  17 W7        29.95F
6HR MIN TEMP:  70; 6HR MAX TEMP:  92;

PINE BLUFFS    FAIR      90  37  15 CALM      30.06S

$$




USA.gov is the U.S. government's official web portal to all federal, state and local government web resources and services.